1486814400.26,14815,10.69,73756.8,-2.39,-16.75,-19.61,0,*5B
1486814401.5,14816,10.69,73756.8,-2.39,-16.75,-19.61,0,*58
1486814402.74,14817,10.69,73752.3,-2.37,-16.97,-19.99,0,*5C
1486814404.0,14818,10.69,73754.8,-2.37,-17.11,-19.99,0,*5C
1486814405.24,14819,10.69,73754.8,-2.37,-16.83,-19.75,0,*55
1486814406.48,14820,10.69,73752.5,-2.37,-16.75,-19.71,0,*52
1486814407.69,14821,10.69,73750.8,-2.39,-16.93,-19.91,0,*5B
1486814408.9,14822,10.69,73748.8,-2.39,-16.89,-19.75,0,*59
1486814410.14,14823,10.69,73754.0,-2.39,-16.65,-19.51,0,*5C
1486814411.42,14824,10.69,73752.8,-2.37,-16.75,-19.57,0,*52
1486814412.66,14825,10.69,73754.5,-2.37,-16.89,-19.75,0,*50
1486814413.87,14826,10.69,73754.8,-2.39,-16.93,-19.91,0,*5C
1486814415.1,14827,10.69,73754.8,-2.37,-16.83,-19.75,0,*58
1486814416.38,14828,10.69,73754.8,-2.37,-16.59,-19.57,0,*50
1486814417.64,14829,10.69,73754.8,-2.37,-16.89,-19.85,0,*53
1486814418.88,14830,10.69,73758.0,-2.37,-16.83,-19.75,0,*5E
1486814420.15,14831,10.69,73754.8,-2.37,-16.75,-19.57,0,*56
1486814421.42,14832,10.69,73752.5,-2.35,-16.69,-19.57,0,*5A
1486814422.68,14833,10.69,73754.3,-2.37,-16.89,-19.85,0,*58
1486814423.92,14834,10.69,73754.5,-2.37,-16.75,-19.71,0,*57
1486814425.18,14835,10.69,73754.5,-2.37,-16.69,-19.71,0,*5B
1486814426.45,14836,10.69,73750.8,-2.37,-17.17,-19.99,0,*56
1486814427.68,14837,10.69,73754.8,-2.37,-16.89,-19.75,0,*53
1486814428.95,14838,10.69,73754.8,-2.37,-16.83,-19.61,0,*53
1486814430.19,14839,10.69,73756.0,-2.37,-16.55,-19.47,0,*5D
1486814431.48,14840,10.69,73752.8,-2.37,-16.69,-19.61,0,*58
1486814432.75,14841,10.69,73756.5,-2.37,-16.55,-19.57,0,*53
1486814434.02,14842,10.69,73754.8,-2.37,-17.17,-20.05,0,*5A
1486814435.29,14843,10.69,73754.0,-2.37,-17.11,-20.05,0,*5D
1486814436.55,14844,10.69,73754.8,-2.37,-17.03,-19.99,0,*56
1486814437.79,14845,10.69,73758.8,-2.37,-16.83,-19.71,0,*58
1486814439.03,14846,10.69,73754.0,-2.37,-16.97,-19.91,0,*50
1486814440.29,14847,10.69,73754.5,-2.37,-16.97,-19.85,0,*54
1486814441.55,14848,10.69,73758.5,-2.37,-17.17,-20.05,0,*50
1486814442.84,14849,10.69,73754.0,-2.37,-17.25,-20.15,0,*51
1486814444.08,14850,10.69,73756.0,-2.37,-17.31,-20.25,0,*5F
1486814445.38,14851,10.69,73754.3,-2.37,-17.45,-20.49,0,*57
1486814446.65,14852,10.69,73752.8,-2.41,-17.93,-20.89,0,*52
1486814447.89,14853,10.69,73752.8,-2.41,-17.83,-20.73,0,*57
1486814449.15,14854,10.69,73752.5,-2.41,-17.55,-20.43,0,*58
1486814450.4,14855,10.69,73758.0,-2.39,-17.41,-20.39,0,*5E
1486814451.66,14856,10.69,73752.5,-2.41,-17.93,-20.73,0,*53
1486814452.94,14857,10.69,73754.8,-2.41,-17.97,-20.89,0,*53
1486814454.2,14858,10.69,73754.8,-2.41,-17.63,-20.59,0,*5A
1486814455.43,14859,10.69,73756.3,-2.41,-17.49,-20.29,0,*54
1486814456.69,14860,10.69,73758.5,-2.43,-17.21,-20.15,0,*5D
1486814457.96,14861,10.69,73754.8,-2.41,-17.63,-20.43,0,*5B
1486814459.2,14862,10.69,73752.8,-2.43,-18.01,-20.93,0,*5C
1486814460.41,14863,10.69,73758.8,-2.43,-17.83,-20.73,0,*56
1486814461.65,14864,10.69,73758.8,-2.43,-17.59,-20.43,0,*55
1486814462.86,14865,10.69,73758.3,-2.43,-16.97,-19.99,0,*5A
1486814464.07,14866,10.69,73758.3,-2.43,-16.83,-19.71,0,*5A
1486814465.29,14867,10.69,73758.3,-2.43,-16.83,-19.71,0,*5B
1486814466.52,14868,10.69,73756.8,-2.43,-16.93,-19.81,0,*5A
1486814467.76,14869,10.69,73754.0,-2.43,-17.07,-19.95,0,*52
1486814468.97,14870,10.69,73756.0,-2.43,-16.97,-19.95,0,*52
1486814470.24,14871,10.69,73754.3,-2.41,-17.03,-19.95,0,*5D
1486814471.48,14872,10.69,73758.8,-2.43,-17.07,-19.95,0,*58
1486814472.71,14873,10.69,73752.3,-2.43,-17.11,-19.99,0,*52
1486814473.98,14874,10.69,73754.3,-2.41,-17.03,-19.95,0,*58
1486814475.24,14875,10.69,73756.3,-2.41,-16.89,-19.65,0,*55
1486814476.5,14876,10.69,73754.8,-2.41,-16.89,-19.65,0,*56
1486814477.73,14877,10.69,73754.8,-2.41,-16.89,-19.75,0,*56
1486814478.98,14878,10.69,73754.3,-2.41,-16.93,-19.81,0,*59
1486814480.22,14879,10.69,73756.8,-2.43,-16.97,-19.85,0,*5A
1486814481.45,14880,10.69,73756.5,-2.43,-16.93,-19.81,0,*5C
1486814482.7,14881,10.69,73756.0,-2.41,-16.93,-19.81,0,*5F
1486814483.96,14882,10.69,73752.0,-2.41,-17.03,-19.91,0,*55
1486814485.23,14883,10.69,73754.5,-2.41,-17.17,-20.05,0,*56
1486814486.49,14884,10.69,73748.0,-2.41,-17.07,-19.95,0,*53
1486814487.75,14885,10.69,73754.0,-2.41,-17.03,-19.91,0,*52
1486814489.01,14886,10.69,73756.0,-2.41,-17.21,-20.05,0,*56
1486814490.28,14887,10.69,73748.5,-2.41,-17.03,-19.91,0,*50
1486814491.54,14888,10.69,73750.3,-2.41,-17.03,-19.91,0,*5F
1486814492.77,14889,10.69,73752.3,-2.43,-17.35,-20.15,0,*5F
1486814494.04,14890,10.69,73752.5,-2.41,-17.07,-20.09,0,*59
1486814495.3,14891,10.69,73752.0,-2.41,-17.21,-20.09,0,*5C
1486814496.54,14892,10.69,73754.0,-2.43,-17.21,-20.09,0,*5D
1486814497.8,14893,10.69,73756.8,-2.41,-17.07,-20.05,0,*56
1486814499.04,14894,10.69,73754.0,-2.43,-17.21,-20.09,0,*5B
1486814500.28,14895,10.69,73752.5,-2.43,-17.07,-19.99,0,*5D
1486814501.53,14896,10.69,73754.5,-2.41,-16.93,-19.81,0,*59
1486814502.76,14897,10.69,73752.8,-2.41,-16.93,-19.95,0,*5D
1486814504.05,14898,10.69,73754.3,-2.41,-17.03,-19.81,0,*5F
1486814505.26,14899,10.69,73754.5,-2.45,-16.97,-19.95,0,*53
1486814506.5,14900,10.69,73756.0,-2.43,-17.07,-20.09,0,*53
1486814507.73,14901,10.69,73750.5,-2.43,-17.11,-19.95,0,*5A
1486814508.97,14902,10.69,73754.8,-2.43,-17.07,-19.95,0,*5E
1486814510.24,14903,10.69,73758.5,-2.41,-17.03,-19.91,0,*5D
1486814511.47,14904,10.69,73754.3,-2.41,-16.93,-19.91,0,*52
1486814512.7,14905,10.69,73758.5,-2.43,-16.93,-19.81,0,*50
1486814513.93,14906,10.69,73754.5,-2.41,-16.93,-19.75,0,*5A
1486814515.19,14907,10.69,73754.5,-2.41,-16.75,-19.65,0,*52
1486814516.42,14908,10.69,73752.3,-2.41,-16.93,-19.75,0,*54
1486814517.66,14909,10.69,73750.3,-2.41,-16.79,-19.75,0,*51
1486814518.88,14910,10.69,73750.3,-2.41,-16.93,-19.75,0,*5D
1486814520.14,14911,10.69,73752.3,-2.41,-16.93,-19.81,0,*57
1486814521.4,14912,10.69,73752.5,-2.39,-17.03,-19.81,0,*53
1486814522.67,14913,10.69,73750.0,-2.39,-17.03,-19.81,0,*52
1486814523.9,14914,10.69,73752.3,-2.39,-16.93,-19.81,0,*5D
1486814525.13,14915,10.69,73752.8,-2.41,-16.93,-19.91,0,*52
1486814526.39,14916,10.69,73754.5,-2.41,-17.03,-19.91,0,*59
1486814527.65,14917,10.69,73748.3,-2.41,-17.07,-19.91,0,*5C
1486814528.89,14918,10.69,73746.5,-2.39,-16.93,-19.81,0,*51
1486814530.12,14919,10.69,73750.3,-2.41,-16.93,-19.91,0,*5E
1486814531.38,14920,10.69,73748.3,-2.41,-17.07,-19.91,0,*58
1486814532.64,14921,10.69,73754.5,-2.39,-17.03,-19.81,0,*53
1486814533.9,14922,10.69,73752.0,-2.41,-16.93,-19.81,0,*57
1486814535.11,14923,10.69,73748.0,-2.39,-16.93,-19.75,0,*52
1486814536.35,14924,10.69,73746.0,-2.39,-16.89,-19.65,0,*5F
1486814537.56,14925,10.69,73748.5,-2.39,-16.93,-19.91,0,*5E
1486814538.8,14926,10.69,73746.3,-2.39,-17.07,-19.95,0,*55
1486814540.06,14927,10.69,73746.0,-2.41,-16.79,-19.65,0,*5C
1486814541.3,14928,10.69,73744.0,-2.41,-16.89,-19.75,0,*5D
1486814542.51,14929,10.69,73750.3,-2.39,-16.89,-19.75,0,*53
1486814543.77,14930,10.69,73750.0,-2.41,-17.21,-20.05,0,*5A
1486814545.01,14931,10.69,73748.0,-2.41,-17.49,-20.29,0,*5B
1486814546.26,14932,10.69,73744.5,-2.39,-17.41,-20.39,0,*5E
1486814547.48,14933,10.69,73748.8,-2.39,-17.49,-20.39,0,*57
1486814548.77,14934,10.69,73744.3,-2.41,-17.07,-19.81,0,*5C
1486814550.03,14935,10.69,73744.5,-2.41,-17.07,-20.05,0,*5B
1486814551.3,14936,10.69,73746.8,-2.41,-17.17,-19.95,0,*5A
1486814552.56,14937,10.69,73746.0,-2.41,-17.07,-19.95,0,*5A
1486814553.82,14938,10.69,73746.8,-2.41,-17.07,-19.91,0,*51
1486814555.08,14939,10.69,73752.3,-2.41,-17.03,-19.91,0,*54
1486814556.35,14940,10.69,73750.5,-2.41,-17.07,-19.91,0,*5E
1486814557.6,14941,10.69,73748.5,-2.41,-16.89,-19.81,0,*59
1486814558.86,14942,10.69,73746.5,-2.41,-16.93,-19.65,0,*5B
1486814560.12,14943,10.69,73750.0,-2.41,-17.07,-19.91,0,*5D
1486814561.35,14944,10.69,73748.8,-2.41,-17.31,-20.05,0,*58
1486814562.61,14945,10.69,73752.8,-2.41,-17.21,-20.05,0,*58
1486814563.85,14946,10.69,73746.0,-2.39,-16.89,-19.65,0,*5B
1486814565.1,14947,10.69,73750.8,-2.39,-16.65,-19.51,0,*5F
1486814566.34,14948,10.69,73748.8,-2.39,-16.65,-19.47,0,*57
1486814567.55,14949,10.69,73744.0,-2.39,-16.75,-19.51,0,*50
1486814568.79,14950,10.69,73748.0,-2.39,-16.75,-19.61,0,*5B
1486814570.03,14951,10.69,73750.8,-2.39,-16.51,-19.37,0,*5F
1486814571.3,14952,10.69,73748.8,-2.41,-16.65,-19.51,0,*54
1486814572.54,14953,10.69,73752.8,-2.39,-16.89,-19.65,0,*5F
1486814573.8,14954,10.69,73750.3,-2.41,-17.07,-19.95,0,*5F
1486814575.02,14955,10.69,73750.0,-2.39,-16.89,-19.75,0,*58
1486814576.26,14956,10.69,73746.8,-2.39,-17.03,-19.95,0,*56
1486814577.5,14957,10.69,73746.5,-2.39,-17.03,-19.91,0,*53
1486814578.71,14958,10.69,73748.3,-2.39,-16.89,-19.75,0,*55
1486814579.96,14959,10.69,73750.0,-2.39,-16.75,-19.65,0,*56
1486814581.19,14960,10.69,73748.0,-2.37,-16.59,-19.47,0,*5C
1486814582.46,14961,10.69,73750.5,-2.37,-16.41,-19.31,0,*55
1486814583.72,14962,10.69,73752.3,-2.37,-16.45,-19.31,0,*52
1486814584.99,14963,10.69,73754.3,-2.37,-16.41,-19.27,0,*50
1486814586.23,14964,10.69,73752.3,-2.37,-16.59,-19.47,0,*58
1486814587.47,14965,10.69,73752.8,-2.37,-16.83,-19.71,0,*5B
1486814588.73,14966,10.69,73748.0,-2.37,-16.97,-19.85,0,*56
1486814589.99,14967,10.69,73750.5,-2.37,-16.89,-19.85,0,*58
1486814591.2,14968,10.69,73748.5,-2.35,-16.83,-19.71,0,*54
1486814592.44,14969,10.69,73750.0,-2.37,-16.59,-19.47,0,*55
1486814593.68,14970,10.69,73748.0,-2.35,-16.83,-19.65,0,*58
1486814594.94,14971,10.69,73746.8,-2.37,-16.83,-19.61,0,*5F
1486814596.18,14972,10.69,73744.5,-2.35,-16.79,-19.65,0,*5F
1486814597.42,14973,10.69,73746.0,-2.35,-16.83,-19.81,0,*51
1486814598.66,14974,10.69,73746.8,-2.35,-16.79,-19.65,0,*59
1486814599.89,14975,10.69,73748.3,-2.35,-16.93,-19.81,0,*56
1486814601.15,14976,10.69,73746.8,-2.37,-16.83,-19.61,0,*58
1486814602.42,14977,10.69,73744.5,-2.35,-16.65,-19.41,0,*51
1486814603.65,14978,10.69,73746.8,-2.35,-16.93,-19.81,0,*5B
1486814604.91,14979,10.69,73748.0,-2.33,-16.97,-19.85,0,*5C
1486814606.19,14980,10.69,73748.8,-2.37,-17.03,-19.85,0,*52
1486814607.45,14981,10.69,73750.3,-2.35,-17.07,-19.85,0,*55
1486814608.72,14982,10.69,73744.8,-2.37,-17.11,-19.91,0,*56
1486814609.95,14983,10.69,73746.3,-2.35,-17.11,-19.99,0,*5D
1486814611.21,14984,10.69,73746.5,-2.37,-17.11,-19.91,0,*50
1486814612.47,14985,10.69,73748.3,-2.37,-17.03,-19.91,0,*52
1486814613.74,14986,10.69,73752.3,-2.35,-17.07,-19.85,0,*52
1486814614.97,14987,10.69,73748.3,-2.35,-17.11,-20.09,0,*5A
1486814616.24,14988,10.69,73748.5,-2.37,-17.25,-20.05,0,*5C
1486814617.48,14989,10.69,73746.3,-2.37,-17.35,-20.25,0,*5E
1486814618.69,14990,10.69,73748.0,-2.35,-17.31,-20.05,0,*52
1486814619.93,14991,10.69,73748.3,-2.35,-17.21,-19.99,0,*5D
1486814621.16,14992,10.69,73746.5,-2.35,-16.97,-19.85,0,*5F
1486814622.39,14993,10.69,73750.0,-2.35,-16.97,-19.81,0,*5A
1486814623.66,14994,10.69,73750.0,-2.37,-16.89,-19.61,0,*5E
1486814624.9,14995,10.69,73748.3,-2.35,-16.79,-19.57,0,*57
1486814626.11,14996,10.69,73748.8,-2.35,-16.83,-19.71,0,*55
1486814627.35,14997,10.69,73750.8,-2.37,-16.97,-19.75,0,*57
1486814628.61,14998,10.69,73748.0,-2.33,-16.97,-19.85,0,*53
1486814629.84,14999,10.69,73748.5,-2.35,-16.93,-19.81,0,*54
1486814631.08,15000,10.69,73754.5,-2.35,-17.07,-19.95,0,*55
1486814632.31,15001,10.69,73748.0,-2.35,-16.97,-19.85,0,*5D
1486814633.55,15002,10.69,73754.5,-2.35,-16.79,-19.61,0,*54
1486814634.82,15003,10.69,73750.5,-2.37,-16.89,-19.61,0,*58
1486814636.06,15004,10.69,73748.0,-2.37,-16.75,-19.47,0,*58
1486814637.29,15005,10.69,73748.0,-2.35,-16.79,-19.65,0,*57
1486814638.56,15006,10.69,73746.8,-2.35,-16.69,-19.41,0,*53
1486814639.79,15007,10.69,73748.0,-2.33,-16.93,-19.71,0,*52
1486814641.05,15008,10.69,73750.3,-2.33,-16.69,-19.51,0,*5A
1486814642.29,15009,10.69,73750.8,-2.31,-16.65,-19.47,0,*52
1486814643.55,15010,10.69,73748.3,-2.33,-16.69,-19.37,0,*53
1486814644.8,15011,10.69,73746.0,-2.35,-16.83,-19.57,0,*56
1486814646.01,15012,10.69,73750.8,-2.35,-16.97,-19.71,0,*54
1486814647.21,15013,10.69,73750.0,-2.35,-16.97,-19.71,0,*55
1486814648.45,15014,10.69,73750.8,-2.35,-16.93,-19.81,0,*59
1486814649.71,15015,10.69,73750.8,-2.33,-17.07,-19.99,0,*5B
1486814650.95,15016,10.69,73750.8,-2.35,-17.07,-19.95,0,*52
1486814652.18,15017,10.69,73746.5,-2.35,-16.93,-19.81,0,*5A
1486814653.47,15018,10.69,73752.3,-2.33,-17.07,-19.85,0,*5B
1486814654.75,15019,10.69,73752.8,-2.33,-17.07,-19.85,0,*5A
1486814656.01,15020,10.69,73750.0,-2.33,-16.69,-19.51,0,*50
1486814657.25,15021,10.69,73750.0,-2.33,-16.79,-19.51,0,*50
1486814658.49,15022,10.69,73748.8,-2.35,-16.69,-19.51,0,*54
1486814659.77,15023,10.69,73748.5,-2.33,-16.69,-19.41,0,*52
1486814661.04,15024,10.69,73750.0,-2.31,-16.65,-19.61,0,*59
1486814662.31,15025,10.69,73750.8,-2.33,-16.79,-19.57,0,*52
1486814663.55,15026,10.69,73748.5,-2.31,-16.79,-19.65,0,*52
1486814664.81,15027,10.69,73748.3,-2.33,-16.93,-19.65,0,*55
1486814666.07,15028,10.69,73750.0,-2.29,-16.51,-19.37,0,*58
1486814667.32,15029,10.69,73752.5,-2.33,-16.55,-19.37,0,*56
1486814668.55,15030,10.69,73748.5,-2.33,-16.83,-19.71,0,*57
1486814669.82,15031,10.69,73750.3,-2.33,-16.79,-19.57,0,*57
1486814671.06,15032,10.69,73748.8,-2.31,-16.79,-19.65,0,*57
1486814672.3,15033,10.69,73752.3,-2.31,-16.89,-19.61,0,*5D
1486814673.54,15034,10.69,73750.5,-2.31,-16.93,-19.81,0,*5F
1486814674.75,15035,10.69,73748.0,-2.31,-16.89,-19.75,0,*5E
1486814675.98,15036,10.69,73748.3,-2.33,-16.93,-19.71,0,*50
1486814677.24,15037,10.69,73748.5,-2.33,-17.11,-19.95,0,*50
1486814678.48,15038,10.69,73748.8,-2.31,-16.89,-19.65,0,*52
1486814679.7,15039,10.69,73746.0,-2.31,-16.59,-19.37,0,*59
1486814680.94,15040,10.69,73750.5,-2.31,-16.65,-19.51,0,*58
1486814682.18,15041,10.69,73750.3,-2.31,-16.65,-19.51,0,*59
1486814683.42,15042,10.69,73750.3,-2.31,-16.93,-19.65,0,*54
1486814684.66,15043,10.69,73750.8,-2.31,-17.03,-19.75,0,*5C
1486814685.89,15044,10.69,73750.8,-2.31,-16.93,-19.81,0,*58
1486814687.15,15045,10.69,73746.8,-2.29,-17.03,-19.91,0,*59
1486814688.41,15046,10.69,73748.3,-2.29,-18.07,-20.83,0,*58
1486814689.63,15047,10.69,73750.3,-2.31,-17.49,-20.29,0,*55
1486814690.9,15048,10.69,73744.8,-2.33,-17.25,-20.05,0,*5C
1486814692.19,15049,10.69,73750.5,-2.33,-17.45,-20.35,0,*58
1486814693.45,15050,10.69,73750.0,-2.29,-17.21,-20.05,0,*5A
1486814694.71,15051,10.69,73742.3,-2.33,-17.21,-19.99,0,*5F
1486814695.98,15052,10.69,73750.0,-2.33,-17.25,-19.95,0,*54
1486814697.24,15053,10.69,73750.0,-2.33,-17.25,-19.99,0,*59
1486814698.47,15054,10.69,73746.8,-2.33,-16.93,-19.71,0,*54
1486814699.74,15055,10.69,73750.5,-2.29,-16.75,-19.61,0,*57
1486814701.0,15056,10.69,73746.8,-2.33,-16.79,-19.65,0,*57
1486814702.26,15057,10.69,73748.5,-2.33,-16.97,-19.81,0,*5C
1486814703.52,15058,10.69,73750.5,-2.31,-17.03,-19.81,0,*5D
1486814704.76,15059,10.69,73746.8,-2.29,-16.89,-19.75,0,*5D
1486814705.99,15060,10.69,73750.3,-2.31,-16.93,-19.81,0,*5E
1486814707.2,15061,10.69,73748.8,-2.31,-16.75,-19.51,0,*5A
1486814708.47,15062,10.69,73744.8,-2.33,-16.83,-19.65,0,*55
1486814709.71,15063,10.69,73744.3,-2.31,-16.79,-19.65,0,*53
1486814710.95,15064,10.69,73744.8,-2.31,-16.79,-19.65,0,*54
1486814712.16,15065,10.69,73746.5,-2.31,-16.89,-19.75,0,*5B
1486814713.41,15066,10.69,73748.0,-2.31,-17.07,-19.95,0,*51
1486814714.67,15067,10.69,73744.8,-2.29,-17.17,-20.05,0,*5B
1486814715.88,15068,10.69,73750.3,-2.31,-16.93,-19.75,0,*5D
1486814717.12,15069,10.69,73746.5,-2.31,-16.89,-19.65,0,*56
1486814718.37,15070,10.69,73750.0,-2.31,-17.07,-19.95,0,*56
1486814719.61,15071,10.69,73744.8,-2.31,-17.35,-20.15,0,*54
1486814720.85,15072,10.69,73748.5,-2.31,-17.17,-19.95,0,*55
1486814722.14,15073,10.69,73744.8,-2.33,-17.07,-19.85,0,*56
1486814723.38,15074,10.69,73748.8,-2.31,-17.07,-19.95,0,*52
1486814724.59,15075,10.69,73748.5,-2.31,-16.93,-19.91,0,*5B
1486814725.83,15076,10.69,73746.0,-2.31,-16.93,-19.81,0,*59
1486814727.07,15077,10.69,73746.5,-2.31,-17.07,-19.91,0,*55
1486814728.35,15078,10.69,73748.8,-2.29,-17.03,-19.81,0,*56
1486814729.63,15079,10.69,73748.0,-2.29,-17.25,-20.15,0,*54
1486814730.9,15080,10.69,73748.3,-2.29,-17.25,-20.05,0,*53
1486814732.16,15081,10.69,73748.5,-2.29,-17.17,-19.95,0,*50
1486814733.45,15082,10.69,73750.0,-2.29,-17.03,-19.81,0,*53
1486814734.68,15083,10.69,73748.0,-2.31,-16.93,-19.65,0,*59
1486814735.92,15084,10.69,73750.0,-2.31,-16.79,-19.65,0,*5A
1486814737.14,15085,10.69,73750.0,-2.31,-16.79,-19.51,0,*5C
1486814738.4,15086,10.69,73748.5,-2.29,-16.65,-19.51,0,*5B
1486814739.64,15087,10.69,73750.3,-2.29,-16.75,-19.51,0,*5B
1486814740.87,15088,10.69,73750.8,-2.29,-16.75,-19.51,0,*54
1486814742.1,15089,10.69,73748.5,-2.29,-16.79,-19.51,0,*59
1486814743.37,15090,10.69,73748.5,-2.29,-16.75,-19.61,0,*5E
1486814744.6,15091,10.69,73746.5,-2.29,-16.75,-19.51,0,*5C
1486814745.82,15092,10.69,73748.3,-2.27,-16.45,-19.37,0,*52
1486814747.1,15093,10.69,73748.8,-2.29,-16.51,-19.31,0,*5E
1486814748.31,15094,10.69,73746.3,-2.27,-16.89,-19.75,0,*52
1486814749.54,15095,10.69,73744.3,-2.23,-16.97,-19.85,0,*57
1486814750.75,15096,10.69,73748.5,-2.27,-16.97,-19.75,0,*5F
1486814751.99,15097,10.69,73748.5,-2.29,-16.89,-19.75,0,*5F
1486814753.23,15098,10.69,73746.8,-2.27,-16.75,-19.57,0,*5D
1486814754.47,15099,10.69,73746.0,-2.27,-16.55,-19.31,0,*5E
1486814755.71,15100,10.69,73746.3,-2.27,-16.55,-19.27,0,*58
1486814756.96,15101,10.69,73746.8,-2.23,-16.75,-19.57,0,*58
1486814758.17,15102,10.69,73746.5,-2.23,-16.89,-19.75,0,*58
1486814759.42,15103,10.69,73748.5,-2.27,-17.11,-19.85,0,*52
1486814760.66,15104,10.69,73746.8,-2.23,-17.17,-19.91,0,*52
1486814761.87,15105,10.69,73746.8,-2.23,-16.97,-19.71,0,*54
1486814763.08,15106,10.69,73744.3,-2.27,-16.89,-19.75,0,*58
1486814764.32,15107,10.69,73746.0,-2.27,-16.83,-19.61,0,*56
1486814765.53,15108,10.69,73744.0,-2.27,-16.83,-19.71,0,*58
1486814766.74,15109,10.69,73744.5,-2.27,-16.83,-19.71,0,*59
1486814767.98,15110,10.69,73748.8,-2.27,-16.89,-19.85,0,*50
1486814769.22,15111,10.69,73746.0,-2.23,-17.17,-19.99,0,*5E
1486814770.48,15112,10.69,73748.5,-2.23,-17.03,-19.85,0,*55
1486814771.69,15113,10.69,73744.8,-2.23,-16.89,-19.75,0,*58
1486814772.93,15114,10.69,73746.3,-2.27,-16.89,-19.65,0,*5A
1486814774.16,15115,10.69,73744.5,-2.27,-17.11,-19.91,0,*50
1486814775.44,15116,10.69,73742.0,-2.29,-17.07,-19.81,0,*5B
1486814776.68,15117,10.69,73746.0,-2.27,-16.83,-19.61,0,*57
1486814777.92,15118,10.69,73742.5,-2.27,-16.83,-19.61,0,*58
1486814779.16,15119,10.69,73746.5,-2.27,-16.83,-19.57,0,*5C
1486814780.4,15120,10.69,73744.8,-2.27,-16.83,-19.61,0,*53
1486814781.64,15121,10.69,73742.8,-2.23,-16.83,-19.61,0,*56
1486814782.91,15122,10.69,73744.8,-2.23,-16.69,-19.57,0,*54
1486814784.12,15123,10.69,73746.3,-2.23,-16.97,-19.75,0,*54
1486814785.39,15124,10.69,73742.5,-2.23,-17.17,-19.85,0,*55
1486814786.67,15125,10.69,73744.8,-2.21,-17.07,-19.81,0,*53
1486814787.88,15126,10.69,73746.5,-2.23,-16.89,-19.71,0,*5A
1486814789.11,15127,10.69,73744.3,-2.21,-16.79,-19.51,0,*54
1486814790.35,15128,10.69,73744.5,-2.23,-16.69,-19.47,0,*5F
1486814791.63,15129,10.69,73742.5,-2.21,-16.69,-19.41,0,*5A
1486814792.87,15130,10.69,73748.8,-2.23,-16.83,-19.61,0,*56
1486814794.08,15131,10.69,73748.0,-2.23,-16.97,-19.75,0,*57
1486814795.34,15132,10.69,73750.3,-2.23,-17.03,-19.85,0,*57
1486814796.55,15133,10.69,73746.3,-2.23,-17.31,-19.95,0,*56
1486814797.84,15134,10.69,73750.8,-2.21,-17.07,-19.85,0,*57
1486814799.08,15135,10.69,73748.5,-2.23,-17.17,-19.91,0,*50
1486814800.33,15136,10.69,73748.3,-2.23,-17.45,-20.25,0,*51
1486814801.54,15137,10.69,73750.8,-2.23,-17.35,-20.09,0,*59
1486814802.81,15138,10.69,73750.5,-2.23,-17.45,-20.19,0,*50
1486814804.03,15139,10.69,73750.5,-2.23,-17.49,-20.39,0,*5F
1486814805.26,15140,10.69,73748.3,-2.23,-17.31,-20.19,0,*5C
1486814806.5,15141,10.69,73748.8,-2.23,-17.17,-19.91,0,*53
1486814807.74,15142,10.69,73744.8,-2.23,-17.03,-19.91,0,*55
1486814808.95,15143,10.69,73750.5,-2.23,-16.93,-19.71,0,*52
1486814810.23,15144,10.69,73750.3,-2.21,-17.07,-19.81,0,*54
1486814811.44,15145,10.69,73748.5,-2.23,-16.97,-19.75,0,*54
1486814812.68,15146,10.69,73748.3,-2.23,-17.03,-19.75,0,*5B
1486814813.93,15147,10.69,73750.3,-2.23,-17.11,-19.85,0,*56
1486814815.19,15148,10.69,73750.8,-2.21,-16.93,-19.81,0,*54
1486814816.45,15149,10.69,73748.5,-2.23,-17.11,-19.85,0,*58
1486814817.67,15150,10.69,73750.5,-2.21,-16.93,-19.71,0,*52
1486814818.96,15151,10.69,73748.0,-2.21,-17.17,-19.85,0,*55
1486814820.22,15152,10.69,73748.5,-2.23,-17.55,-20.19,0,*5D
1486814821.51,15153,10.69,73746.8,-2.21,-17.17,-19.85,0,*57
1486814822.77,15154,10.69,73746.3,-2.23,-17.11,-19.85,0,*54
1486814824.03,15155,10.69,73748.5,-2.21,-16.83,-19.65,0,*53
1486814825.29,15156,10.69,73750.3,-2.21,-16.79,-19.65,0,*55
1486814826.52,15157,10.75,73752.3,-2.21,-16.97,-19.71,0,*51
1486814827.72,15158,10.69,73750.3,-2.19,-16.93,-19.71,0,*51
1486814828.98,15159,10.69,73750.3,-2.21,-16.93,-19.81,0,*54
1486814830.24,15160,10.69,73748.0,-2.21,-17.17,-20.09,0,*59
1486814831.51,15161,10.69,73746.3,-2.21,-17.59,-20.43,0,*5C
1486814832.74,15162,10.69,73744.5,-2.23,-17.73,-20.53,0,*54
1486814834.04,15163,10.69,73748.0,-2.21,-17.45,-20.19,0,*5C
1486814835.24,15164,10.69,73750.5,-2.19,-17.31,-20.05,0,*5E
1486814836.5,15165,10.75,73748.8,-2.21,-17.17,-20.05,0,*50
1486814837.71,15166,10.69,73748.5,-2.23,-17.31,-19.99,0,*5A
1486814839.0,15167,10.69,73752.5,-2.21,-17.17,-19.85,0,*50
1486814840.25,15168,10.69,73746.0,-2.19,-17.11,-19.85,0,*52
1486814841.53,15169,10.69,73748.3,-2.21,-17.55,-20.19,0,*57
1486814842.82,15170,10.75,73752.8,-2.21,-17.07,-19.85,0,*57
1486814844.08,15171,10.69,73746.0,-2.21,-17.25,-20.05,0,*54
1486814845.35,15172,10.69,73748.3,-2.21,-17.17,-19.95,0,*55
1486814846.56,15173,10.69,73748.5,-2.23,-17.35,-20.09,0,*59
1486814847.8,15174,10.75,73748.0,-2.23,-17.17,-19.99,0,*5D
1486814849.05,15175,10.75,73750.0,-2.17,-16.93,-19.81,0,*5F
1486814850.28,15176,10.69,73744.0,-2.21,-17.31,-20.05,0,*56
1486814851.52,15177,10.69,73750.5,-2.23,-17.21,-19.99,0,*5B
1486814852.75,15178,10.69,73748.3,-2.21,-17.31,-20.05,0,*58
1486814854.02,15179,10.69,73744.5,-2.23,-17.45,-20.19,0,*55
1486814855.27,15180,10.69,73748.5,-2.21,-17.31,-20.15,0,*5E
1486814856.52,15181,10.69,73746.3,-2.19,-17.11,-19.85,0,*55
1486814857.8,15182,10.69,73748.3,-2.21,-17.11,-19.85,0,*5D
1486814859.06,15183,10.69,73744.5,-2.19,-17.07,-19.81,0,*54
1486814860.25,15184,10.69,73750.0,-2.19,-16.93,-19.71,0,*50
1486814861.51,15185,10.69,73750.3,-2.21,-16.97,-19.85,0,*55
1486814862.77,15186,10.69,73748.0,-2.19,-17.45,-20.19,0,*5C
1486814864.04,15187,10.69,73748.0,-2.21,-17.41,-20.05,0,*5F
1486814865.25,15188,10.75,73750.5,-2.23,-17.31,-19.99,0,*5A
1486814866.48,15189,10.69,73748.3,-2.23,-17.21,-19.91,0,*52
1486814867.75,15190,10.69,73748.3,-2.21,-17.17,-19.95,0,*59
1486814868.96,15191,10.69,73746.5,-2.23,-16.89,-19.71,0,*56
1486814870.25,15192,10.69,73750.5,-2.21,-17.45,-20.19,0,*52
1486814871.5,15193,10.69,73748.0,-2.21,-17.31,-20.15,0,*5C
1486814872.74,15194,10.69,73746.3,-2.23,-17.31,-20.19,0,*55
1486814874.02,15195,10.69,73748.5,-2.21,-17.45,-20.35,0,*5B
1486814875.24,15196,10.69,73744.8,-2.23,-17.83,-20.63,0,*53
1486814876.51,15197,10.69,73750.5,-2.21,-17.45,-20.05,0,*5A
1486814877.75,15198,10.69,73750.8,-2.23,-17.21,-20.09,0,*59
1486814878.95,15199,10.69,73748.0,-2.23,-17.31,-20.09,0,*59
1486814880.16,15200,10.69,73748.0,-2.23,-17.31,-20.09,0,*5A
1486814881.44,15201,10.69,73744.3,-2.21,-17.11,-19.81,0,*51
1486814882.7,15202,10.69,73746.3,-2.21,-16.93,-19.81,0,*59
1486814883.93,15203,10.69,73746.0,-2.23,-16.97,-19.81,0,*5E
1486814885.19,15204,10.69,73750.8,-2.21,-16.93,-19.65,0,*55
1486814886.44,15205,10.69,73746.8,-2.19,-17.07,-19.81,0,*59
1486814887.7,15206,10.69,73744.8,-2.21,-17.25,-19.95,0,*54
1486814888.99,15207,10.69,73744.3,-2.21,-17.55,-20.19,0,*5C
1486814890.25,15208,10.75,73748.3,-2.21,-17.45,-20.29,0,*51
1486814891.47,15209,10.69,73744.8,-2.23,-17.73,-20.39,0,*56
1486814892.7,15210,10.69,73742.8,-2.23,-17.79,-20.69,0,*51
1486814893.94,15211,10.69,73742.5,-2.23,-17.63,-20.39,0,*5E
1486814895.16,15212,10.69,73746.8,-2.23,-17.87,-20.63,0,*58
1486814896.43,15213,10.69,73744.8,-2.23,-17.45,-20.19,0,*5A
1486814897.67,15214,10.69,73746.0,-2.23,-17.35,-20.19,0,*5A